Date String (YYYY-MM-DD hh:mm:ss) UTC,Instrument flags,Ambient pressure (hPa),Sample flow (lpm),Bypass flow (lpm),Sample temperature (°C),Ambient temperature (°C),ASC tube jacket temperature (°C),LED temperature (°C),Box temperature (°C),Sample RH (%),Span deviation,Mass concentration (μg/m³),Mass concentration (μg/m³),Mass concentration (μg/m³)
DateTimeUTC,F1_M11,P_M11,Q1_M11,Q2_M11,T1_M11,T2_M11,T3_M11,T4_M11,T5_M11,U1_M11,ZSPAN_M11,X0_M11,X2_M11,X1_M11
2021-11-18 00:00:00,,0832.4,5.01,0.00,22.6,22.0,00.0,31.5,24.5,09.1,0000.0,0017.15,0004.24,0002.39
2021-11-18 00:01:00,,0832.4,4.99,0.00,22.7,22.0,00.0,31.6,24.5,09.1,0000.0,0017.07,0004.25,0002.39
2021-11-18 00:02:00,,0832.4,5.01,0.00,22.7,22.1,00.0,31.6,24.5,09.1,0000.0,0017.61,0004.23,0002.38
2021-11-18 00:03:00,,0832.4,4.99,0.00,22.7,22.1,00.0,31.6,24.6,09.0,0000.0,0016.80,0004.23,0002.40
2021-11-18 00:04:00,,0832.3,5.01,0.00,22.7,22.1,00.0,31.6,24.6,09.0,0000.0,0015.52,0004.28,0002.41
2021-11-18 00:05:00,,0832.4,5.00,0.00,22.7,22.1,00.0,31.6,24.6,09.0,0000.0,0015.21,0004.31,0002.42
2021-11-18 00:06:00,,0832.4,4.99,0.00,22.7,22.1,00.0,31.6,24.6,09.0,0000.0,0015.49,0004.30,0002.43
2021-11-18 00:07:00,,0832.4,5.01,0.00,22.8,22.2,00.0,31.6,24.6,09.0,0000.0,0016.47,0004.30,0002.47
2021-11-18 00:08:00,,0832.5,4.99,0.00,22.8,22.2,00.0,31.7,24.6,09.0,0000.0,0016.78,0004.34,0002.51
2021-11-18 00:09:00,,0832.5,5.00,0.00,22.8,22.2,00.0,31.7,24.6,09.0,0000.0,0015.68,0004.40,0002.55
2021-11-18 00:10:00,,0832.5,4.99,0.00,22.8,22.2,00.0,31.7,24.7,09.0,0000.0,0016.02,0004.43,0002.59
2021-11-18 00:11:00,,0832.5,5.01,0.00,22.8,22.2,00.0,31.7,24.7,09.0,0000.0,0016.11,0004.45,0002.65
2021-11-18 00:12:00,,0832.5,4.99,0.00,22.8,22.2,00.0,31.7,24.7,09.0,0000.0,0015.52,0004.42,0002.68
2021-11-18 00:13:00,,0832.5,5.00,0.00,22.8,22.2,00.0,31.7,24.7,09.0,0000.0,0015.61,0004.45,0002.71
2021-11-18 00:14:00,,0832.5,5.00,0.00,22.8,22.2,00.0,31.7,24.7,09.0,0000.0,0015.82,0004.49,0002.72
2021-11-18 00:15:00,,0832.5,4.99,0.00,22.8,22.2,00.0,31.7,24.7,09.0,0000.0,0015.81,0004.45,0002.73
2021-11-18 00:16:00,,0832.6,5.01,0.00,22.8,22.2,00.0,31.7,24.7,09.0,0000.0,0015.60,0004.37,0002.75
2021-11-18 00:17:00,,0832.6,5.01,0.00,22.8,22.2,00.0,31.8,24.7,09.0,0000.0,0016.10,0004.43,0002.78
2021-11-18 00:18:00,,0832.6,5.00,0.00,22.9,22.2,00.0,31.8,24.7,09.0,0000.0,0015.14,0004.44,0002.80
2021-11-18 00:19:00,,0832.6,4.99,0.00,22.9,22.2,00.0,31.8,24.7,08.9,0000.0,0015.37,0004.40,0002.80
2021-11-18 00:20:00,,0832.6,5.01,0.00,22.9,22.2,00.0,31.8,24.7,08.9,0000.0,0016.03,0004.41,0002.81
2021-11-18 00:21:00,,0832.7,4.99,0.00,22.9,22.2,00.0,31.8,24.8,08.9,0000.0,0016.60,0004.45,0002.81
2021-11-18 00:22:00,,0832.7,5.01,0.00,22.9,22.2,00.0,31.8,24.7,08.9,0000.0,0016.09,0004.41,0002.80
2021-11-18 00:23:00,,0832.7,5.01,0.00,22.9,22.2,00.0,31.8,24.7,09.0,0000.0,0016.14,0004.41,0002.80
2021-11-18 00:24:00,,0832.8,4.99,0.00,22.9,22.2,00.0,31.8,24.8,09.0,0000.0,0014.96,0004.42,0002.83
2021-11-18 00:25:00,,0832.7,5.00,0.00,22.9,22.2,00.0,31.8,24.7,09.0,0000.0,0015.74,0004.39,0002.83
2021-11-18 00:26:00,,0832.7,5.01,0.00,22.9,22.2,00.0,31.8,24.7,09.0,0000.0,0016.89,0004.45,0002.85
2021-11-18 00:27:00,,0832.7,4.99,0.00,22.9,22.2,00.0,31.8,24.7,09.0,0000.0,0017.77,0004.55,0002.89
2021-11-18 00:28:00,,0832.7,5.02,0.00,22.9,22.2,00.0,31.8,24.8,08.9,0000.0,0017.97,0004.51,0002.90
2021-11-18 00:29:00,,0832.7,4.99,0.00,22.9,22.2,00.0,31.8,24.8,09.0,0000.0,0018.01,0004.51,0002.90
2021-11-18 00:30:00,,0832.8,5.00,0.00,22.9,22.2,00.0,31.8,24.7,09.0,0000.0,0018.07,0004.60,0002.93
2021-11-18 00:31:00,,0832.8,5.01,0.00,22.9,22.2,00.0,31.8,24.7,09.0,0000.0,0018.98,0004.65,0002.96
2021-11-18 00:32:00,,0832.7,5.00,0.00,22.9,22.2,00.0,31.8,24.8,09.0,0000.0,0018.55,0004.61,0002.96
2021-11-18 00:33:00,,0832.7,5.01,0.00,22.9,22.2,00.0,31.8,24.7,09.0,0000.0,0018.74,0004.63,0002.97
2021-11-18 00:34:00,,0832.8,4.99,0.00,22.9,22.2,00.0,31.8,24.7,09.0,0000.0,0018.83,0004.66,0002.99
2021-11-18 00:35:00,,0832.8,5.01,0.00,22.9,22.2,00.0,31.8,24.7,09.0,0000.0,0018.72,0004.66,0003.00
2021-11-18 00:36:00,,0832.8,4.99,0.00,22.9,22.2,00.0,31.8,24.7,09.0,0000.0,0018.33,0004.66,0003.03
2021-11-18 00:37:00,,0832.9,5.02,0.00,22.9,22.2,00.0,31.9,24.7,09.0,0000.0,0017.47,0004.61,0003.04
2021-11-18 00:38:00,,0832.9,4.99,0.00,22.9,22.2,00.0,31.8,24.7,09.0,0000.0,0017.33,0004.60,0003.03
2021-11-18 00:39:00,,0832.8,5.00,0.00,22.9,22.2,00.0,31.8,24.7,09.0,0000.0,0016.44,0004.58,0003.02
2021-11-18 00:40:00,,0832.8,5.00,0.00,22.9,22.1,00.0,31.9,24.7,09.0,0000.0,0017.32,0004.58,0003.03
2021-11-18 00:41:00,,0832.8,5.00,0.00,22.9,22.1,00.0,31.8,24.7,09.0,0000.0,0016.87,0004.52,0003.02
2021-11-18 00:42:00,,0832.9,4.99,0.00,22.9,22.1,00.0,31.8,24.6,09.0,0000.0,0015.29,0004.41,0003.01
2021-11-18 00:43:00,,0832.9,5.00,0.00,22.8,22.1,00.0,31.8,24.6,09.0,0000.0,0014.71,0004.41,0003.01
2021-11-18 00:44:00,,0832.9,5.01,0.00,22.8,22.1,00.0,31.8,24.6,09.0,0000.0,0014.85,0004.39,0003.01
2021-11-18 00:45:00,,0832.9,4.99,0.00,22.8,22.1,00.0,31.8,24.6,09.0,0000.0,0014.87,0004.40,0003.00
2021-11-18 00:46:00,,0833.0,4.99,0.00,22.8,22.1,00.0,31.8,24.6,09.0,0000.0,0016.20,0004.40,0002.98
2021-11-18 00:47:00,,0833.1,4.99,0.00,22.8,22.1,00.0,31.8,24.6,09.0,0000.0,0016.24,0004.40,0002.97
2021-11-18 00:48:00,,0833.1,5.00,0.00,22.8,22.1,00.0,31.8,24.6,09.0,0000.0,0016.32,0004.43,0002.95
2021-11-18 00:49:00,,0833.0,5.02,0.00,22.8,22.1,00.0,31.8,24.6,09.0,0000.0,0016.33,0004.40,0002.94
2021-11-18 00:50:00,,0833.1,4.98,0.00,22.8,22.1,00.0,31.8,24.6,09.0,0000.0,0017.04,0004.40,0002.94
2021-11-18 00:51:00,,0833.0,5.01,0.00,22.8,22.0,00.0,31.8,24.6,09.0,0000.0,0016.47,0004.40,0002.93
2021-11-18 00:52:00,,0833.0,4.99,0.00,22.8,22.0,00.0,31.8,24.5,09.1,0000.0,0016.35,0004.39,0002.92
2021-11-18 00:53:00,,0833.0,5.00,0.00,22.8,22.0,00.0,31.8,24.5,09.1,0000.0,0017.31,0004.37,0002.91
2021-11-18 00:54:00,,0833.0,5.00,0.00,22.7,22.0,00.0,31.8,24.5,09.1,0000.0,0017.29,0004.33,0002.89
2021-11-18 00:55:00,,0833.0,5.00,0.00,22.7,22.0,00.0,31.8,24.5,09.1,0000.0,0017.51,0004.39,0002.89
2021-11-18 00:56:00,,0833.1,5.01,0.00,22.7,22.0,00.0,31.8,24.5,09.2,0000.0,0018.62,0004.40,0002.89
2021-11-18 00:57:00,,0833.1,5.00,0.00,22.7,22.0,00.0,31.8,24.5,09.2,0000.0,0017.62,0004.44,0002.88
2021-11-18 00:58:00,,0833.1,5.01,0.00,22.7,22.0,00.0,31.8,24.5,09.2,0000.0,0017.44,0004.47,0002.88
2021-11-18 00:59:00,,0833.1,5.00,0.00,22.7,22.0,00.0,31.7,24.4,09.2,0000.0,0017.05,0004.46,0002.90
